Weather in Bolshaya Sazanka

Russia / Amur Oblast     51°10′49″N   128°09′24″E
temp.,
°C
wind,
m/s
gust,
m/s
humid.,
%
clouds,
%
prec.,
mm/h
press.,
hPa
HPBL,
m
14 april, wed
wed1400:00−4nnw484793 0.0 1006702
03:00−5nw495799 0.0 1006511
06:00−6n247298 0.0 1006286
09:00−3nnw5848100 0.0 10061651
12:00−1nnw6728100 0.0 10062289
15:00+1nnw5727100 0.0 10062407
18:00+1nnw362595 0.0 10062292
21:00−2nne11375 0.0 100810
15 april, thu
thu1500:00−3nw22405 0.0 100810
03:00−4w224422 0.0 100926
06:00−4wsw22445 0.0 100911
09:00+2wsw342750 0.0 1009778
12:00+5w342737 0.0 10092209
15:00+7wnw3324100 0.0 10082186
18:00+6n2227100 0.0 1009853
21:00+4ene3436100 0.0 101179
16 april, fri
fri1600:00+2ne4840100 0.0 1011239
03:00+1ene4946100 0.0 1010247
06:000ne5851100 0.1 1009271
09:00+1ne61149100 1.0 1009741
12:00+1ne81172100 1.1 1010904
15:00+2nne7977100 1.4 1010861
18:00+3nne61069100 0.3 1009902
21:00+2nne61274100 0.3 1010610
17 april, sat
sat1700:00+1nne51185100 0.9 1010601
03:000nne5109399 1.8 1010404
06:000n5107886 0.1 1010354
09:00+3n576048 0.1 1012622
12:00+8n45405 0.0 10111158
15:00+10n56403 0.0 10081406
18:00+11nnw33200 0.0 10101025
21:00+6n22250 0.0 101110
18 april, sun
sun1800:00+4ne11290 0.0 101110
03:00+2s22370 0.0 101110
06:00+1ssw22405 0.0 101110
09:00+8s332895 0.0 1011322
12:00+13s33215 0.0 1010962
15:00+15s43226 0.0 10081374
18:00+14s33281 0.0 10081116
21:00+5sse22745 0.0 100927